Location: La Pernelle
(49.6188°N, 1.2999°W)
Time: 05:34:55
(UTC+00:00)

ATLAS CENTAUR R/B - Visible Passes

Search period start: 26 October 2021 00:00
Search period end: 05 November 2021 00:00
Orbit: 459 x 683 km, 64.6° (Epoch: 22 October)

Date Brightness Start Highest point End Pass type
(mag) Time Alt. Az. Time Alt. Az. Time Alt. Az.
26 Oct 3.6 03:58:05 19° N 03:58:05 19° N 04:00:02 10° NNE visible
26 Oct 3.8 05:34:55 10° NNW 05:36:50 12° N 05:38:47 10° NNE visible
27 Oct 3.7 03:59:59 17° N 03:59:59 17° N 04:01:48 10° NNE visible
27 Oct 3.8 05:37:13 10° NNW 05:39:00 12° N 05:40:51 10° NNE visible
28 Oct 3.8 04:01:52 15° N 04:01:52 15° N 04:03:33 10° NNE visible
28 Oct 3.9 05:39:22 10° NNW 05:41:12 12° N 05:43:04 10° NNE visible
29 Oct 3.9 04:03:43 14° N 04:03:43 14° N 04:05:20 10° NNE visible
29 Oct 3.9 05:41:22 10° NNW 05:43:23 13° N 05:45:26 10° NNE visible
30 Oct 4.0 04:05:34 13° N 04:05:34 13° N 04:07:10 10° NNE visible
30 Oct 3.9 05:43:16 10° NNW 05:45:33 13° NNE 05:47:53 10° NE visible
31 Oct 4.0 04:07:24 13° N 04:07:24 13° N 04:09:03 10° NNE visible
31 Oct 3.9 05:45:05 10° NNW 05:47:42 15° NNE 05:50:23 10° NE visible
01 Nov 4.1 04:09:15 12° N 04:09:15 12° N 04:11:03 10° NNE visible
01 Nov 3.9 05:46:51 10° NNW 05:49:49 17° NNE 05:52:52 10° ENE visible
02 Nov 4.1 04:11:05 12° N 04:11:18 12° N 04:13:11 10° NNE visible
02 Nov 3.8 05:48:36 10° NNW 05:51:55 19° NNE 05:55:21 10° ENE visible
03 Nov 4.1 04:12:56 12° N 04:13:29 12° N 04:15:28 10° NNE visible
03 Nov 3.6 05:50:19 10° NNW 05:53:59 22° NNE 05:57:46 10° E visible
04 Nov 4.0 04:14:48 13° N 04:15:38 13° N 04:17:52 10° NE visible
04 Nov 3.4 05:52:02 10° NNW 05:56:01 27° NNE 06:00:07 10° E visible
